Wind_Speed
27 26 27 26 26 25 24 24 23 21 19 16 12 9 8 9 9 9 9 7 4 2 3 3 4 6 9 3 6 6 12 12 10 10 9 5 4 2 3 3 8 9 5 8 5 4 5
25 25 25 25 24 24 24 23 23 22 20 17 13 10 9 8 9 9 10 10 8 7 9 9 7 5 4 6 6 6 10 13 9 9 8 4 4 2 3 3 3 10 9 9 4 5 4
25 25 25 25 24 23 22 23 22 22 21 19 15 11 8 7 7 8 9 8 5 6 6 6 5 3 3 4 4 6 11 11 9 9 6 3 0 5 2 8 6 13 10 9 6 3 1
25 26 26 26 25 25 23 22 22 22 21 20 17 13 9 7 6 8 11 7 1 0 1 3 4 4 2 5 4 6 11 9 12 8 3 3 4 3 3 12 9 2 5 3 8 9 0
25 26 27 27 27 26 24 23 21 21 21 19 18 15 10 6 6 7 10 7 4 4 3 3 1 1 7 5 5 8 9 8 11 8 4 2 3 3 5 10 9 4 5 4 6 7 2
25 26 27 27 27 26 25 24 23 21 21 19 18 16 12 7 6 6 9 9 5 2 3 2 1 4 5 4 11 11 8 12 9 9 6 6 7 9 7 6 5 7 7 2 5 8 8
24 25 26 27 27 26 25 24 23 22 21 20 18 17 14 10 7 5 6 6 2 2 5 5 2 3 6 8 13 12 11 9 10 12 10 9 10 8 3 3 5 5 5 5 5 8 6
24 25 26 27 27 27 27 25 24 23 22 20 18 16 15 12 8 6 3 2 3 5 5 6 7 5 6 11 13 13 12 13 13 14 7 7 12 1 5 7 7 6 4 9 5 7 7
24 25 26 26 27 27 26 26 25 24 23 22 20 17 14 13 10 9 6 4 6 9 6 6 6 7 10 13 13 16 15 9 14 14 13 15 4 5 8 10 8 6 4 4 5 7 4
24 26 27 27 27 27 26 27 26 25 24 24 22 19 14 13 6 9 5 7 7 5 5 10 10 8 10 8 7 8 16 11 8 13 11 11 12 8 9 10 7 7 3 3 8 8 3
25 27 27 27 28 28 28 26 27 27 25 25 24 20 14 9 6 4 9 7 5 3 4 10 9 9 12 9 15 10 13 10 11 9 9 8 10 11 12 11 4 2 2 6 7 4 6
25 26 26 27 27 28 29 28 27 28 28 26 25 20 14 10 9 11 10 4 3 7 4 9 10 12 13 12 8 13 14 8 2 6 11 8 1 4 4 1 4 7 6 4 6 6 10
26 27 27 28 28 29 28 28 29 28 28 27 26 19 12 6 6 13 13 5 6 8 4 9 11 11 15 10 10 12 14 15 10 11 12 13 12 6 7 10 8 8 12 6 4 6 2
27 28 28 28 27 28 29 28 28 29 28 28 25 12 7 3 9 13 15 8 9 2 7 4 5 8 11 11 11 13 13 13 15 11 7 12 13 13 11 13 7 11 9 7 3 5 3
29 28 28 26 25 27 29 30 31 30 29 28 22 3 7 4 12 14 16 12 6 6 1 4 7 12 13 10 7 12 15 13 13 17 9 10 5 5 6 4 9 8 10 6 8 5 8
28 27 26 24 25 27 31 33 33 31 27 27 16 2 7 3 11 9 11 13 3 4 3 5 9 6 15 15 12 11 12 12 13 14 19 4 8 6 7 7 5 9 3 7 7 4 5
26 26 21 22 26 29 31 33 33 31 25 22 7 2 5 3 8 11 9 9 6 7 4 4 4 6 8 6 14 10 7 8 15 17 15 12 9 11 9 9 7 7 10 8 8 5 8
22 20 20 24 26 28 30 31 32 31 24 19 6 3 7 7 7 4 8 4 2 8 4 5 6 8 8 5 11 9 11 12 14 15 14 16 9 9 5 6 1 3 9 7 8 6 3
18 18 21 24 26 27 28 28 28 27 24 21 9 3 4 5 4 7 4 7 5 7 8 4 6 5 3 7 6 10 6 2 12 15 11 12 11 7 10 10 7 8 9 9 9 8 12
18 21 23 24 25 25 25 25 25 24 19 14 6 2 2 3 1 5 4 9 10 7 10 6 6 6 7 10 10 6 9 4 12 15 4 12 15 12 9 2 2 7 10 12 13 10 7
19 21 23 23 23 23 23 24 23 22 17 8 6 4 3 2 3 7 5 3 8 7 6 5 5 3 3 6 10 11 13 6 8 6 8 14 14 13 12 5 5 10 9 12 14 13 9
21 22 21 21 21 21 22 23 23 21 15 8 7 6 7 7 4 7 3 5 8 4 4 7 9 2 5 5 4 6 7 8 8 8 8 11 11 8 13 7 8 10 11 11 14 14 8
22 21 20 18 17 18 20 21 22 23 19 7 7 5 5 2 4 5 3 4 4 4 6 9 7 8 9 6 8 12 16 17 10 10 12 10 8 10 14 10 9 13 14 13 13 12 14
21 20 18 16 17 18 19 20 20 21 20 10 8 5 5 5 4 6 5 6 8 10 11 11 10 11 4 13 19 18 12 11 12 12 11 9 11 10 12 7 15 12 3 6 12 14 13
20 18 17 17 18 20 21 21 18 17 17 8 10 3 3 6 8 11 12 10 10 12 14 16 17 17 14 14 8 11 11 11 5 0 11 8 12 9 11 12 10 6 7 8 11 15 14
19 18 16 17 18 20 22 21 17 14 13 7 6 2 1 6 1 4 7 7 8 7 8 12 13 10 10 8 10 13 12 13 9 8 3 7 9 11 9 15 17 10 2 6 6 13 18
16 17 17 18 20 20 20 17 15 12 10 8 6 3 3 7 11 6 6 6 4 6 7 7 4 4 8 9 12 13 14 3 11 8 3 4 8 16 14 10 11 3 6 7 9 3 4
15 16 18 19 19 18 15 14 12 12 10 7 5 7 6 7 21 22 19 17 12 9 8 6 8 8 7 8 8 10 6 9 9 12 8 1 5 11 16 14 15 10 10 11 3 5 9
15 16 17 18 17 14 14 12 10 10 9 7 7 7 10 12 18 20 25 24 20 19 15 10 10 5 4 3 3 7 6 5 12 8 8 10 8 6 7 12 5 18 17 16 7 7 10
Wind_Direction
44 41 40 37 35 32 30 28 26 25 25 25 28 26 23 22 23 25 26 26 33 65 96 112 125 139 144 185 109 167 178 184 190 189 195 202 247 278 28 94 93 105 151 96 117 68 73
40 36 35 31 30 28 27 26 25 24 23 21 19 16 14 16 20 26 33 41 61 88 99 99 96 115 149 192 156 185 196 195 197 196 206 229 306 290 73 72 346 117 127 139 125 45 63
34 31 30 26 24 22 21 22 21 20 19 18 14 9 4 4 11 17 17 16 40 79 89 82 62 100 198 83 156 187 189 189 203 195 202 235 328 266 148 112 111 128 121 129 107 359 352
27 25 23 20 20 18 16 14 14 15 15 13 10 5 356 345 353 357 357 348 289 142 54 22 24 106 77 153 133 165 174 188 191 189 188 260 257 249 316 128 140 150 154 171 145 181 270
21 20 18 16 15 15 14 12 9 9 9 7 6 1 350 325 331 345 356 349 333 237 258 324 14 145 134 167 155 162 155 171 171 186 212 268 192 231 179 225 169 182 62 91 144 201 153
15 14 13 12 11 10 10 9 9 5 3 2 359 356 346 320 302 324 347 345 343 261 255 293 163 210 173 174 167 161 162 153 166 180 190 215 228 227 212 221 349 73 78 80 116 171 209
8 8 8 7 7 5 5 5 4 2 359 356 354 350 342 321 291 299 340 349 316 194 277 269 92 323 137 142 152 164 166 164 170 196 209 204 246 216 309 333 18 324 7 68 90 152 182
3 3 4 4 4 3 1 360 360 357 353 351 348 344 340 321 286 260 276 303 2 329 292 233 240 225 166 163 160 164 165 187 196 206 210 201 240 115 303 294 270 298 307 94 102 143 194
360 -0 0 360 0 359 359 358 357 355 351 346 345 337 336 322 292 245 230 246 319 333 254 169 187 185 172 178 186 178 188 195 206 217 215 246 91 26 282 265 259 242 311 127 91 157 191
357 356 355 355 355 354 355 356 356 354 349 345 342 334 327 324 301 229 225 242 315 330 255 143 187 173 166 191 187 194 199 195 205 224 230 251 258 256 282 261 250 253 12 171 152 212 98
355 352 352 353 352 351 350 350 351 352 348 344 341 330 320 305 236 203 213 208 309 284 255 140 133 158 168 202 130 175 185 197 228 194 215 199 205 225 239 243 290 341 172 171 196 222 264
348 350 349 349 350 349 348 348 349 346 345 343 339 329 316 300 230 214 187 184 287 231 213 156 153 180 179 200 172 150 181 211 291 206 222 278 180 263 274 298 186 131 147 155 200 230 232
343 345 346 346 346 347 349 349 349 349 342 343 340 334 319 254 198 198 180 183 227 245 138 169 186 180 205 175 171 180 190 200 208 203 206 208 211 180 187 137 158 214 215 203 176 236 163
342 344 344 344 344 346 348 349 350 349 347 343 345 337 350 221 188 177 173 210 233 301 218 115 194 194 209 190 213 196 196 213 215 246 232 204 172 193 185 247 218 222 294 298 267 268 112
342 346 349 349 349 348 347 345 344 347 349 345 349 26 13 327 188 172 196 213 213 236 126 224 187 221 201 208 241 203 215 218 201 209 246 204 182 137 204 216 262 158 233 0 291 223 265
340 348 347 350 351 348 345 344 341 342 345 347 353 100 5 95 171 178 220 229 223 252 288 234 242 214 218 193 200 202 191 208 205 203 237 204 184 179 154 178 177 280 108 214 203 252 250
339 349 354 354 349 348 346 346 344 344 344 350 7 222 1 133 148 200 218 223 230 221 261 261 233 235 239 209 220 201 228 195 211 189 208 233 254 151 180 213 181 175 214 234 305 312 307
344 352 355 350 350 351 351 352 351 350 354 358 5 208 349 152 207 228 231 237 236 224 208 260 276 276 256 194 214 220 228 240 183 176 199 214 236 194 194 111 301 272 283 251 250 190 214
349 352 350 349 350 352 353 354 355 357 357 355 339 313 342 185 240 210 188 230 252 237 231 245 249 245 291 247 241 225 225 265 192 199 197 179 230 197 191 179 189 228 205 247 265 291 271
351 349 348 349 350 353 354 356 358 359 1 355 334 278 92 74 26 296 259 233 232 215 258 266 287 267 258 248 241 264 230 161 204 219 208 216 237 229 238 10 17 200 220 228 243 246 247
347 345 345 348 350 353 354 354 0 3 8 24 357 51 6 358 106 330 287 306 248 232 232 250 225 246 294 262 250 230 247 171 192 204 206 223 232 234 255 286 259 278 267 213 229 253 267
341 340 343 346 349 353 356 357 360 7 15 33 353 346 332 288 289 279 181 239 260 236 255 202 251 29 289 279 307 334 337 271 210 189 211 223 233 207 241 218 241 250 243 229 228 249 246
336 336 337 343 347 351 354 356 356 5 18 28 3 333 302 277 280 258 259 268 269 299 257 264 301 307 278 303 321 292 286 278 272 270 205 211 203 210 240 202 231 243 239 229 236 229 243
329 330 333 337 339 339 342 346 347 349 3 16 1 339 294 289 273 289 282 265 270 270 274 279 287 281 274 313 304 271 254 255 260 228 252 203 200 216 253 169 230 248 64 269 257 253 248
323 324 325 327 330 332 334 335 335 335 339 0 351 347 308 286 307 283 266 277 277 260 251 259 270 270 286 292 276 251 235 222 190 177 244 238 213 211 243 225 236 207 209 231 243 259 250
318 315 316 320 325 327 329 330 331 328 325 353 318 7 272 300 84 325 293 288 291 287 272 251 261 265 262 262 244 242 232 226 202 176 229 223 252 229 200 242 239 244 202 203 271 265 246
311 310 312 318 321 326 330 331 333 334 331 335 299 299 256 271 279 279 248 316 305 280 274 277 312 264 218 239 238 236 235 199 222 204 91 202 231 220 215 230 241 126 157 171 223 38 140
305 306 310 316 319 324 329 332 338 343 338 340 295 292 265 263 278 273 263 261 261 251 274 23 290 203 238 233 240 241 275 210 241 217 172 10 237 229 232 217 234 147 163 212 51 95 147
299 303 308 313 317 322 326 327 331 333 338 333 310 285 293 275 267 276 270 257 249 249 270 260 284 312 323 300 288 240 217 284 207 194 193 188 266 291 257 225 135 182 216 212 231 177 169
Height
1560 1557 1554 1551 1548 1545 1541 1537 1534 1530 1527 1524 1521 1519 1518 1516 1514 1512 1510 1508 1507 1506 1506 1507 1508 1508 1510 1512 1512 1511 1512 1513 1515 1516 1519 1519 1518 1515 1510 1513 1516 1520 1526 1527 1528 1527 1525
1563 1560 1556 1553 1550 1546 1542 1539 1535 1531 1527 1525 1522 1520 1518 1516 1515 1513 1511 1510 1508 1507 1507 1508 1509 1509 1510 1508 1512 1511 1511 1513 1516 1518 1519 1519 1517 1516 1514 1515 1515 1520 1524 1528 1529 1528 1526
1566 1562 1558 1555 1551 1547 1544 1540 1536 1532 1528 1525 1523 1520 1519 1517 1515 1514 1512 1511 1510 1509 1509 1509 1509 1509 1510 1512 1511 1511 1511 1514 1516 1518 1520 1519 1518 1516 1514 1517 1520 1522 1524 1525 1527 1528 1528
1567 1563 1559 1556 1552 1548 1544 1540 1536 1533 1529 1526 1523 1520 1518 1516 1515 1514 1512 1511 1510 1510 1509 1509 1509 1509 1509 1510 1510 1511 1512 1514 1515 1518 1519 1518 1518 1516 1514 1518 1519 1518 1523 1525 1527 1529 1527
1568 1565 1561 1556 1552 1548 1544 1540 1537 1533 1530 1526 1523 1520 1517 1515 1515 1513 1512 1511 1509 1509 1509 1509 1509 1509 1508 1510 1511 1512 1513 1515 1517 1518 1519 1517 1518 1515 1515 1506 1504 1512 1521 1521 1529 1528 1525
1569 1565 1561 1557 1553 1548 1544 1540 1536 1533 1529 1526 1522 1519 1516 1514 1513 1512 1511 1509 1508 1508 1509 1508 1508 1512 1509 1508 1510 1512 1513 1516 1517 1519 1519 1518 1514 1506 1505 1504 1523 1511 1512 1517 1522 1525 1524
1570 1566 1561 1557 1553 1548 1544 1540 1536 1532 1529 1525 1521 1518 1515 1513 1511 1511 1511 1509 1511 1510 1506 1504 1504 1504 1505 1508 1510 1512 1514 1516 1516 1517 1511 1513 1508 1503 1498 1497 1503 1503 1507 1514 1517 1520 1522
1570 1566 1561 1557 1552 1548 1543 1539 1535 1531 1527 1523 1520 1516 1513 1511 1510 1510 1510 1511 1510 1511 1505 1503 1504 1504 1506 1507 1509 1511 1514 1514 1513 1510 1510 1512 1509 1497 1502 1503 1503 1503 1506 1511 1518 1519 1521
1569 1565 1561 1556 1552 1547 1542 1538 1534 1530 1525 1521 1518 1514 1511 1508 1507 1508 1508 1510 1508 1506 1503 1500 1502 1502 1504 1507 1505 1507 1511 1510 1509 1506 1507 1505 1499 1503 1503 1502 1503 1499 1503 1509 1511 1516 1517
1568 1564 1559 1555 1550 1546 1541 1537 1532 1528 1523 1518 1514 1511 1508 1506 1507 1504 1507 1506 1506 1504 1494 1495 1497 1499 1502 1502 1503 1505 1508 1510 1508 1506 1503 1503 1499 1504 1503 1501 1497 1502 1498 1503 1509 1509 1512
1567 1563 1558 1554 1549 1544 1539 1535 1530 1525 1520 1515 1511 1507 1504 1503 1502 1504 1504 1505 1505 1504 1504 1488 1493 1497 1498 1499 1498 1504 1506 1508 1502 1504 1507 1500 1500 1503 1503 1497 1495 1498 1500 1501 1503 1504 1508
1566 1561 1557 1552 1547 1542 1537 1532 1528 1522 1517 1512 1507 1503 1500 1498 1498 1500 1501 1503 1504 1502 1503 1487 1487 1491 1494 1494 1495 1501 1504 1506 1504 1502 1501 1497 1501 1499 1494 1497 1496 1500 1502 1505 1503 1500 1512
1564 1559 1555 1550 1545 1540 1535 1530 1524 1520 1514 1509 1503 1498 1495 1494 1497 1496 1500 1503 1499 1498 1484 1485 1483 1485 1485 1488 1491 1494 1499 1500 1500 1508 1504 1497 1496 1496 1498 1499 1500 1498 1498 1514 1528 1520 1513
1562 1557 1552 1547 1542 1537 1532 1527 1522 1517 1511 1505 1500 1495 1493 1492 1493 1494 1499 1499 1502 1482 1479 1479 1480 1482 1484 1481 1485 1488 1491 1493 1492 1491 1487 1498 1509 1492 1492 1490 1492 1495 1489 1501 1525 1515 1505
1560 1555 1550 1546 1541 1536 1530 1525 1519 1514 1508 1501 1497 1494 1493 1492 1492 1495 1498 1494 1487 1482 1478 1480 1479 1481 1480 1479 1481 1484 1486 1484 1482 1488 1494 1490 1492 1491 1493 1491 1491 1494 1502 1488 1498 1498 1509
1558 1553 1549 1545 1540 1535 1529 1523 1516 1511 1506 1500 1495 1495 1494 1491 1492 1496 1493 1487 1483 1485 1483 1481 1481 1475 1475 1474 1482 1481 1479 1475 1479 1482 1483 1481 1493 1485 1494 1494 1495 1491 1488 1500 1495 1518 1519
1556 1552 1548 1544 1540 1534 1528 1521 1514 1508 1504 1500 1495 1495 1496 1494 1494 1496 1487 1481 1484 1486 1486 1482 1477 1476 1472 1472 1472 1474 1473 1472 1473 1476 1481 1479 1482 1492 1491 1489 1483 1495 1492 1492 1488 1496 1508
1554 1550 1547 1543 1539 1533 1527 1521 1515 1508 1502 1499 1496 1491 1495 1494 1494 1491 1484 1485 1490 1483 1485 1483 1482 1477 1475 1472 1472 1473 1474 1469 1471 1475 1481 1477 1475 1484 1483 1487 1490 1489 1485 1482 1494 1500 1495
1553 1550 1546 1542 1537 1532 1527 1522 1517 1511 1505 1500 1500 1497 1495 1494 1486 1485 1487 1486 1487 1483 1481 1480 1478 1478 1475 1475 1479 1469 1467 1469 1473 1473 1471 1475 1478 1488 1492 1490 1490 1488 1485 1484 1484 1485 1498
1552 1549 1545 1541 1536 1532 1528 1523 1518 1513 1508 1504 1503 1492 1495 1495 1495 1491 1489 1484 1484 1485 1484 1483 1480 1479 1477 1476 1471 1471 1468 1471 1472 1471 1472 1473 1465 1475 1485 1478 1474 1486 1487 1486 1484 1487 1486
1552 1548 1545 1540 1536 1533 1529 1524 1520 1515 1510 1507 1506 1503 1505 1492 1493 1497 1495 1490 1485 1483 1484 1483 1480 1480 1481 1481 1471 1471 1467 1469 1473 1475 1473 1468 1473 1470 1468 1473 1477 1480 1480 1485 1488 1483 1490
1551 1547 1544 1540 1536 1533 1529 1525 1520 1516 1513 1513 1511 1510 1506 1500 1501 1497 1495 1488 1487 1485 1487 1479 1482 1481 1482 1483 1479 1473 1477 1468 1465 1474 1472 1467 1471 1472 1476 1475 1478 1483 1479 1480 1482 1481 1484
1549 1545 1543 1539 1536 1533 1529 1525 1521 1518 1515 1516 1514 1514 1511 1500 1496 1494 1488 1489 1488 1493 1486 1486 1487 1486 1482 1480 1483 1482 1481 1477 1471 1470 1469 1468 1469 1479 1482 1473 1481 1490 1478 1477 1477 1477 1480
1547 1543 1541 1538 1535 1533 1530 1526 1523 1519 1518 1518 1516 1515 1511 1496 1497 1493 1494 1495 1494 1493 1492 1488 1488 1487 1484 1485 1482 1476 1474 1472 1471 1469 1466 1467 1472 1472 1479 1479 1503 1471 1467 1469 1472 1471 1472
1543 1541 1539 1537 1534 1532 1528 1525 1523 1520 1517 1518 1515 1517 1515 1502 1497 1496 1494 1493 1492 1491 1491 1489 1487 1486 1486 1485 1478 1472 1466 1468 1469 1470 1470 1465 1467 1476 1480 1482 1472 1470 1471 1475 1476 1475 1469
1540 1538 1536 1534 1532 1529 1526 1523 1520 1518 1516 1517 1515 1513 1515 1513 1492 1497 1496 1494 1491 1485 1484 1483 1484 1484 1485 1480 1472 1475 1468 1459 1465 1467 1473 1468 1471 1471 1477 1485 1484 1462 1459 1468 1471 1479 1465
1536 1535 1533 1531 1529 1526 1523 1521 1518 1516 1514 1514 1514 1512 1513 1510 1499 1498 1495 1492 1493 1490 1484 1481 1483 1480 1480 1473 1470 1465 1463 1459 1467 1469 1475 1474 1475 1473 1468 1476 1464 1458 1466 1471 1485 1473 1463
1533 1531 1530 1528 1526 1523 1521 1519 1517 1515 1514 1513 1513 1512 1512 1507 1498 1495 1496 1495 1493 1492 1484 1482 1481 1477 1475 1473 1467 1460 1464 1458 1464 1458 1467 1478 1478 1469 1463 1472 1479 1461 1469 1473 1465 1466 1468
1529 1527 1526 1525 1522 1520 1519 1517 1516 1514 1513 1512 1511 1510 1508 1506 1497 1492 1489 1489 1489 1492 1492 1489 1482 1481 1475 1473 1463 1457 1469 1467 1457 1467 1463 1476 1473 1473 1460 1460 1458 1459 1460 1464 1466 1468 1470